• In Czech Republic
  • List of Countries
  • For 7 days
  • Water Temperature
  • Satellite Maps
  • Weather Map
  • Weather Widgets
  • user-avatar
    Login

    Hourly Weather Durres

    Today, 25 September, Tuesday

    Time Temperature Precipitation Wind Pressure Humidity
    00:00 +20°C° 0.1 mm 8 mps 763 mmHg 60%
    01:00 +18°C° 0 mm 9 mps 764 mmHg 57%
    02:00 +17°C° 0 mm 9 mps 764 mmHg 56%
    03:00 +17°C° 0 mm 9 mps 764 mmHg 55%
    04:00 +16°C° 0 mm 9 mps 765 mmHg 54%
    05:00 +16°C° 0 mm 9 mps 765 mmHg 52%
    06:00 +16°C° 0 mm 9 mps 765 mmHg 50%
    07:00 +16°C° 0 mm 10 mps 765 mmHg 45%
    08:00 +18°C° 0 mm 9 mps 765 mmHg 40%
    09:00 +21°C° 0 mm 9 mps 765 mmHg 35%
    10:00 +23°C° 0 mm 9 mps 765 mmHg 30%
    11:00 +24°C° 0 mm 9 mps 765 mmHg 27%
    12:00 +26°C° 0 mm 8 mps 765 mmHg 24%
    13:00 +27°C° 0 mm 8 mps 765 mmHg 21%
    14:00 +27°C° 0 mm 8 mps 765 mmHg 21%
    15:00 +26°C° 0 mm 8 mps 765 mmHg 21%
    16:00 +26°C° 0 mm 8 mps 765 mmHg 21%
    17:00 +22°C° 0 mm 8 mps 765 mmHg 24%
    18:00 +19°C° 0 mm 9 mps 766 mmHg 27%
    19:00 +17°C° 0 mm 9 mps 766 mmHg 30%
    20:00 +16°C° 0 mm 9 mps 767 mmHg 32%
    21:00 +15°C° 0 mm 9 mps 767 mmHg 33%
    22:00 +15°C° 0 mm 9 mps 768 mmHg 35%
    23:00 +13°C° 0 mm 9 mps 768 mmHg 37%

    Tomorrow, 26 September, Wednesday

    Time Temperature Precipitation Wind Pressure Humidity
    00:00 +12°C° 0 mm 9 mps 768 mmHg 39%
    01:00 +12°C° 0 mm 9 mps 768 mmHg 40%
    02:00 +11°C° 0 mm 9 mps 769 mmHg 41%
    03:00 +11°C° 0 mm 9 mps 769 mmHg 42%
    04:00 +10°C° 0 mm 8 mps 769 mmHg 43%
    05:00 +11°C° 0 mm 9 mps 769 mmHg 41%
    06:00 +12°C° 0 mm 9 mps 769 mmHg 39%
    07:00 +12°C° 0 mm 9 mps 769 mmHg 37%
    08:00 +15°C° 0 mm 9 mps 769 mmHg 33%
    09:00 +17°C° 0 mm 9 mps 769 mmHg 28%
    10:00 +19°C° 0 mm 9 mps 769 mmHg 24%
    11:00 +21°C° 0 mm 9 mps 769 mmHg 22%
    12:00 +22°C° 0 mm 9 mps 769 mmHg 21%
    13:00 +22°C° 0 mm 9 mps 769 mmHg 19%
    14:00 +22°C° 0 mm 9 mps 769 mmHg 20%
    15:00 +22°C° 0 mm 9 mps 768 mmHg 20%
    16:00 +21°C° 0 mm 9 mps 768 mmHg 21%
    17:00 +18°C° 0 mm 9 mps 769 mmHg 25%
    18:00 +16°C° 0 mm 9 mps 770 mmHg 28%
    19:00 +13°C° 0 mm 9 mps 770 mmHg 32%
    20:00 +12°C° 0 mm 8 mps 771 mmHg 35%
    21:00 +11°C° 0 mm 8 mps 771 mmHg 37%
    22:00 +10°C° 0 mm 8 mps 771 mmHg 40%
    23:00 +10°C° 0 mm 8 mps 771 mmHg 42%

    Day after tomorrow, 27 September, Thursday

    Time Temperature Precipitation Wind Pressure Humidity
    00:00 +9°C° 0 mm 8 mps 771 mmHg 43%
    01:00 +9°C° 0 mm 8 mps 771 mmHg 45%
    02:00 +7°C° 0 mm 8 mps 771 mmHg 45%
    03:00 +7°C° 0 mm 8 mps 771 mmHg 46%
    04:00 +7°C° 0 mm 8 mps 770 mmHg 46%
    05:00 +9°C° 0 mm 8 mps 770 mmHg 44%
    06:00 +10°C° 0 mm 7 mps 770 mmHg 42%
    07:00 +11°C° 0 mm 7 mps 770 mmHg 39%
    08:00 +14°C° 0 mm 7 mps 769 mmHg 33%
    09:00 +17°C° 0 mm 7 mps 769 mmHg 26%
    10:00 +21°C° 0 mm 7 mps 769 mmHg 20%
    11:00 +22°C° 0 mm 7 mps 768 mmHg 18%
    12:00 +24°C° 0 mm 7 mps 768 mmHg 16%
    13:00 +26°C° 0 mm 7 mps 767 mmHg 14%
    14:00 +26°C° 0 mm 7 mps 766 mmHg 14%
    15:00 +24°C° 0 mm 7 mps 766 mmHg 15%
    16:00 +24°C° 0 mm 7 mps 765 mmHg 16%
    17:00 +22°C° 0 mm 7 mps 765 mmHg 20%
    18:00 +18°C° 0 mm 7 mps 766 mmHg 24%
    19:00 +16°C° 0 mm 6 mps 766 mmHg 28%
    20:00 +15°C° 0 mm 6 mps 766 mmHg 29%
    21:00 +14°C° 0 mm 6 mps 766 mmHg 30%
    22:00 +14°C° 0 mm 6 mps 766 mmHg 31%
    23:00 +13°C° 0 mm 6 mps 766 mmHg 32%

    28 September, Friday

    Time Temperature Precipitation Wind Pressure Humidity
    00:00 +13°C° 0 mm 6 mps 765 mmHg 33%
    01:00 +13°C° 0 mm 6 mps 765 mmHg 34%
    02:00 +13°C° 0 mm 6 mps 764 mmHg 35%
    03:00 +11°C° 0 mm 6 mps 764 mmHg 35%
    04:00 +11°C° 0 mm 6 mps 763 mmHg 36%
    05:00 +13°C° 0 mm 6 mps 763 mmHg 34%
    06:00 +14°C° 0 mm 6 mps 763 mmHg 33%
    07:00 +15°C° 0 mm 6 mps 762 mmHg 31%
    08:00 +19°C° 0 mm 5 mps 762 mmHg 26%
    09:00 +22°C° 0 mm 5 mps 762 mmHg 20%
    10:00 +26°C° 0 mm 4 mps 761 mmHg 15%
    11:00 +27°C° 0 mm 4 mps 761 mmHg 15%
    12:00 +29°C° 0 mm 4 mps 760 mmHg 14%
    13:00 +30°C° 0 mm 3 mps 760 mmHg 14%
    14:00 +29°C° 0 mm 4 mps 759 mmHg 15%
    15:00 +29°C° 0 mm 5 mps 759 mmHg 17%
    16:00 +29°C° 0 mm 6 mps 758 mmHg 18%
    17:00 +26°C° 0 mm 5 mps 759 mmHg 21%
    18:00 +23°C° 0 mm 5 mps 759 mmHg 24%
    19:00 +20°C° 0 mm 5 mps 759 mmHg 26%
    20:00 +20°C° 0 mm 5 mps 759 mmHg 25%
    21:00 +20°C° 0 mm 4 mps 760 mmHg 24%
    22:00 +19°C° 0 mm 4 mps 760 mmHg 23%
    23:00 +19°C° 0 mm 4 mps 759 mmHg 24%

    29 September, Saturday

    Time Temperature Precipitation Wind Pressure Humidity
    00:00 +19°C° 0 mm 3 mps 759 mmHg 25%
    01:00 +18°C° 0 mm 3 mps 759 mmHg 26%
    02:00 +18°C° 0 mm 3 mps 759 mmHg 27%
    03:00 +18°C° 0 mm 3 mps 759 mmHg 28%
    04:00 +17°C° 0 mm 3 mps 759 mmHg 28%
    05:00 +18°C° 0 mm 3 mps 759 mmHg 29%
    06:00 +19°C° 0 mm 3 mps 759 mmHg 30%
    07:00 +19°C° 0 mm 3 mps 759 mmHg 31%
    08:00 +22°C° 0 mm 3 mps 759 mmHg 29%
    09:00 +25°C° 0 mm 3 mps 759 mmHg 26%
    10:00 +28°C° 0 mm 3 mps 758 mmHg 24%
    11:00 +29°C° 0 mm 4 mps 758 mmHg 25%
    12:00 +30°C° 0 mm 5 mps 758 mmHg 25%
    13:00 +32°C° 0 mm 5 mps 757 mmHg 25%
    14:00 +32°C° 0 mm 6 mps 757 mmHg 26%
    15:00 +30°C° 0 mm 7 mps 757 mmHg 26%
    16:00 +30°C° 0 mm 7 mps 757 mmHg 27%
    17:00 +28°C° 0 mm 7 mps 757 mmHg 30%
    18:00 +26°C° 0 mm 7 mps 758 mmHg 34%
    19:00 +22°C° 0 mm 7 mps 758 mmHg 37%
    20:00 +22°C° 0 mm 7 mps 758 mmHg 38%
    21:00 +21°C° 0 mm 7 mps 759 mmHg 38%
    22:00 +20°C° 0 mm 7 mps 759 mmHg 38%
    23:00 +20°C° 0 mm 7 mps 759 mmHg 40%

    30 September, Sunday

    Time Temperature Precipitation Wind Pressure Humidity
    00:00 +18°C° 0 mm 7 mps 759 mmHg 41%
    01:00 +18°C° 0 mm 7 mps 759 mmHg 43%
    02:00 +17°C° 0 mm 7 mps 759 mmHg 44%
    03:00 +17°C° 0 mm 7 mps 759 mmHg 46%
    04:00 +17°C° 0 mm 6 mps 759 mmHg 47%
    05:00 +17°C° 0 mm 6 mps 759 mmHg 46%
    06:00 +19°C° 0 mm 6 mps 759 mmHg 46%
    07:00 +20°C° 0 mm 6 mps 759 mmHg 45%
    08:00 +22°C° 0 mm 6 mps 759 mmHg 40%
    09:00 +26°C° 0 mm 6 mps 759 mmHg 35%
    10:00 +28°C° 0 mm 5 mps 759 mmHg 30%
    11:00 +29°C° 0 mm 5 mps 759 mmHg 29%
    12:00 +30°C° 0 mm 5 mps 759 mmHg 28%
    13:00 +30°C° 0 mm 5 mps 759 mmHg 27%
    14:00 +30°C° 0 mm 6 mps 758 mmHg 28%
    15:00 +29°C° 0 mm 6 mps 758 mmHg 30%
    16:00 +29°C° 0 mm 7 mps 758 mmHg 31%
    17:00 +27°C° 0 mm 7 mps 758 mmHg 37%
    18:00 +23°C° 0 mm 6 mps 759 mmHg 43%
    19:00 +21°C° 0 mm 6 mps 759 mmHg 48%
    20:00 +20°C° 0 mm 5 mps 759 mmHg 50%
    21:00 +20°C° 0 mm 5 mps 759 mmHg 53%
    22:00 +19°C° 0 mm 4 mps 759 mmHg 55%
    23:00 +19°C° 0 mm 4 mps 759 mmHg 57%
    Show more